Regional Weather Roundup
Issued by NWS

Home | Current Version | Previous Version | Graphics & Text | Print | Product List | Glossary Off
Versions: 1 2 3 4 5 6 7 8 9 10 11 12 13 14 15 16 17 18 19 20 21 22 23 24 25 26 27 28 29 30 31 32 33 34 35 36 37 38 39 40 41 42 43 44 45 46 47 48 49 50

000
ASUS43 KTOP 291408
RWRKS

WEATHER ROUNDUP FOR KANSAS
NATIONAL WEATHER SERVICE GOODLAND KS
900 AM CDT MON JUN 29 2015

NOTE:  "FAIR" INDICATES FEW OR NO CLOUDS BELOW 12,000 FEET WITH NO
SIGNIFICANT WEATHER AND/OR OBSTRUCTIONS TO VISIBILITY.

KSZ001>006-013>018-027>032-041>047-291500-
NORTHWEST KANSAS

CITY           SKY/WX    TMP DP  RH WIND       PRES   REMARKS
GOODLAND       CLOUDY    68  57  68 NW7       30.15R
HAYS           SUNNY     73  52  46 N5        30.07S
HILL CITY      SUNNY     76  52  43 CALM      30.08R
RUSSELL        SUNNY     74  55  51 NW8       30.05R
$$

KSZ061>065-074>080-084>089-291500-
SOUTHWEST KANSAS

CITY           SKY/WX    TMP DP  RH WIND       PRES   REMARKS
DODGE CITY     SUNNY     74  55  51 NE7       30.08R
ELKHART          N/A     74  55  51 N7          N/A
GARDEN CITY    SUNNY     74  53  48 E13       30.09R
GREAT BEND     SUNNY     75  55  50 N6        30.06R
LIBERAL        SUNNY     73  61  64 NE7       30.09R
PRATT          SUNNY    N/A N/A N/A E9        30.05R
$$

KSZ066>073-081>083-090>101-291500-
SOUTHEAST KANSAS

CITY           SKY/WX    TMP DP  RH WIND       PRES   REMARKS
CHANUTE        SUNNY     74  65  73 N6        29.97R
COFFEYVILLE    SUNNY     74  63  68 N7        29.96R
HUTCHINSON     SUNNY     75  58  55 N5        30.03R
MEDICINE LODGE   N/A     79  61  53 NE6       30.01R
NEWTON         SUNNY     72  55  56 N7        30.04R
PARSONS        SUNNY     73  65  75 N5        29.97R
WICHITA INTL   MOSUNNY   77  58  51 N8        30.00R
WICHITA JABRA  SUNNY     76  59  55 N7        30.00R
WICHITA MCCONL SUNNY     76  58  53 VRB7      30.01
WINFIELD       SUNNY     76  61  59 N10       30.00R
$$

KSZ007>012-019>026-033>040-048>060-102>105-291500-
NORTHEAST KANSAS

CITY           SKY/WX    TMP DP  RH WIND       PRES   REMARKS
CONCORDIA      SUNNY     68  59  73 W6        30.02R
EMPORIA        SUNNY     72  62  71 NW5       29.98S
LAWRENCE       SUNNY     74  64  71 NW7       29.95R
MANHATTAN      SUNNY     72  63  73 CALM      29.98R
MARYSVILLE     SUNNY     70  63  78 NW3       29.99R
OLATHE IND     SUNNY     73  63  70 NW8       29.96R
OLATHE EXE     SUNNY     75  63  66 N6        29.94S
SALINA         SUNNY     71  57  61 NW6       30.02R
TOPEKA FORBES  SUNNY     75  62  64 NW7       29.96R
$$



USA.gov is the U.S. government's official web portal to all federal, state and local government web resources and services.